カタログに戻る

BREEZE-M DEB

LostHEO
NORAD 39992·DEBRIS·🇷🇺 Russia

打ち上げ Mar 14, 2008 から Baikonur Cosmodrome

Loading…

次のパス (今後24時間)

TLE

古いSource: Space-Track

元期: May 14, 2013, 00:55 UTC

1 39992U 08011DR  13134.03877167 -.00000033  00000-0  10000-3 0  9994
2 39992  48.5887 243.2552 6330127 200.5090 114.2488  3.05278592 16124

AllMySatでBREEZE-M DEBをリアルタイム追跡

Download on the App Store